Terug naar catalogus

SL-8 R/B

ActiefPO
NORAD 10732·ROCKET BODY·🇷🇺 Russia

Gelanceerd Mar 15, 1978 vanaf Plesetsk Cosmodrome

Loading…

Volgende Passages (komende 24 uur)

TLE

VersSource: Space-Track

Epoch: Sep 14, 2026, 11:08 UTC

1 10732U 78028B   26257.46452935  .00000153  00000-0  14256-3 0  9998
2 10732  82.9284 264.3388 0019439 178.2922 334.4426 13.75610759433559

Volg SL-8 R/B in realtime met AllMySat

Download on the App Store